[[{"header":{"parameterUnit":"m.s-1","parameterCategory":1,"la1":30.2991,"la2":30.254,"lo1":-89.0895,"lo2":-89.0444,"dy":0.0017,"dx":0.0017,"nx":28,"ny":28,"refTime":"2024-10-17T21:00:00:Z","depth":0,"parameterNumber":2,"parameterNumberName":"U-component_of_WINDS"},"data":[0,0,0,0,0,0,0,0,0,0,0,0,0,0,0,0,0,0,0,0,0,0,0,0,0,0,0,0,0,0,0,0,0,0,0,0,0,0,0,0,0,0,0,0,0,0,0,0,0,0,0,0,0,0,0,0,0,0,-4.9339,-4.9339,0,-4.9326,-4.9326,-4.9325,-4.9187,-4.9184,-4.9181,-4.9177,-4.9165,-4.9168,-4.9171,0,0,0,0,0,0,0,0,0,0,0,0,0,-4.9248,-4.9251,-4.9339,-4.9339,-4.9339,-4.9326,-4.9325,-4.9325,-4.9188,-4.9184,-4.918,-4.9176,-4.9164,-4.9167,-4.9171,0,0,0,0,0,0,0,0,0,0,0,0,0,-4.9267,-4.9252,-4.9339,-4.9269,-4.9262,-4.9326,-4.9325,-4.9325,-4.9189,-4.9184,-4.9179,-4.9174,-4.9163,-4.9167,-4.9171,-4.9302,0,0,-4.9185,-4.9187,0,0,0,0,0,0,0,0,-4.9266,-4.927,-4.9279,-4.9274,-4.9267,-4.9253,-4.9289,-4.9317,-4.919,-4.9217,-4.9177,-4.9171,-4.9199,-4.92,-4.9208,-4.9301,-4.9301,-4.9185,-4.9188,-4.919,-4.9191,0,0,0,0,0,0,0,-4.9265,-4.927,-4.9334,-4.928,-4.9272,-4.9239,-4.9235,-4.9294,-4.9237,-4.9214,-4.9204,-4.9204,-4.9194,-4.9205,-4.9207,-4.93,-4.9185,-4.9189,-4.9191,-4.9193,-4.9501,-4.9507,0,0,0,0,0,0,-4.9273,-4.927,-4.9334,-4.9333,-4.9254,-4.9244,-4.9241,-4.9263,-4.9236,-4.9227,-4.9209,-4.9198,-4.92,-4.9202,-4.9206,-4.9359,-4.9189,-4.9194,-4.9196,-4.9496,-4.9502,-4.9508,0,0,0,0,0,0,-4.9272,-4.928,-4.9335,-4.9299,-4.9303,-4.9251,-4.9277,-4.9265,-4.9275,-4.9232,-4.9221,-4.923,-4.9196,-4.92,-4.9279,-4.9356,-4.9196,-4.9199,-4.9489,-4.9498,-4.9505,-4.9664,0,0,0,0,0,0,-4.927,-4.9281,-4.9329,-4.9301,-4.9306,-4.9408,-4.9282,-4.9269,-4.9283,-4.9269,-4.9249,-4.9241,-4.9192,-4.9274,-4.9284,-4.9359,-4.9203,-4.9482,-4.9493,-4.9503,-4.9652,-4.9677,-4.9698,0,0,0,0,0,-4.9267,-4.9374,-4.9332,-4.9341,-4.9365,-4.9413,-4.9416,-4.9357,-4.929,-4.9339,-4.9311,-4.9241,-4.9346,-4.9283,-4.9293,-4.9371,-4.9477,-4.949,-4.9502,-4.9641,-4.9672,-4.9697,0,0,0,0,0,0,-4.9413,-4.9369,-4.9322,-4.9423,-4.9423,-4.9389,-4.9449,-4.9391,-4.941,-4.9396,-4.9323,-4.932,-4.9411,-4.9398,-4.9329,-4.9497,-4.9399,-4.9415,-4.9502,-4.953,-4.9553,-4.9555,-4.9206,0,0,0,0,0,-4.9457,-4.9498,-4.9458,-4.9551,-4.9553,-4.9502,-4.952,-4.9475,-4.9472,-4.9471,-4.9449,-4.9449,-4.9482,-4.9505,-4.9533,-4.9648,-4.9643,-4.9707,-4.9731,-4.975,-4.9765,-4.9827,-4.9855,-4.955,-4.955,-4.9549,0,0,-4.9548,-4.9529,-4.956,-4.958,-4.9574,-4.962,-4.9502,-4.9555,-4.9589,-4.9479,-4.9553,-4.9537,-4.9532,-4.9631,-4.9673,-4.9624,-4.9848,-4.9766,-4.9782,-4.9786,-4.9843,-4.9872,-4.9898,-4.9558,-4.9557,-4.9555,0,0,-4.9738,-4.9727,-4.9804,-4.9801,-4.9794,-4.9759,-4.9778,-4.9753,-4.9739,-4.9811,-4.9731,-4.977,-4.9827,-4.9828,-4.9836,-5.0027,-4.9965,-5.0038,-5.016,-5.0222,-5.0246,-5.0267,-5.0337,-5.0363,-5.0052,-5.0053,-5.0053,0,-4.9852,-4.9917,-4.9852,-4.991,-4.9922,-4.9825,-4.9903,-4.9903,-4.9906,-4.9917,-4.9861,-4.9932,-4.9922,-5.0021,-5.0068,-5.0076,-5.0097,-5.0041,-5.0247,-5.0268,-5.0287,-5.0353,-5.0379,-5.0062,-5.0061,-5.006,-5.0059,0,-5.0059,-5.0106,-5.0169,-5.0175,-5.0193,-5.0262,-5.0208,-5.0235,-5.0188,-5.016,-5.0236,-5.022,-5.0244,-5.0264,-5.0219,-5.0357,-5.0326,-5.026,-5.0161,-5.0326,-5.0387,-5.0412,-5.0075,-5.0072,-5.0069,-5.0067,0,0,-5.0341,-5.031,-5.0334,-5.0336,-5.0321,-5.0357,-5.0421,-5.0444,-5.047,-5.0475,-5.0528,-5.058,-5.0519,-5.0528,-5.0482,-5.0536,-5.0691,-5.0463,-5.0462,-5.0508,-5.0845,-5.0896,-5.0926,-5.0649,-5.0653,-5.0657,-5.0846,0,-5.0526,-5.0634,-5.0577,-5.0693,-5.0737,-5.0645,-5.0701,-5.0699,-5.0674,-5.0708,-5.068,-5.0719,-5.0634,-5.0639,-5.0688,-5.0662,-5.0758,-5.0647,-5.07,-5.0702,-5.0706,-5.0958,-5.1012,-5.1191,-5.0869,-5.0873,-5.0876,0,-5.0755,-5.0771,-5.0892,-5.087,-5.0886,-5.0938,-5.0955,-5.0988,-5.0984,-5.0962,-5.0973,-5.0915,-5.0978,-5.0879,-5.0965,-5.0892,-5.0909,-5.09,-5.0905,-5.0909,-5.0801,-5.0971,-5.1246,-5.1274,-5.0912,-5.0909,-5.0907,0,-5.0952,-5.1002,-5.1081,-5.1086,-5.1062,-5.1101,-5.1093,-5.1084,-5.1102,-5.1117,-5.1128,-5.115,-5.1163,-5.1183,-5.1133,-5.1065,-5.1227,-5.1123,-5.1212,-5.1214,-5.1252,-5.1251,-5.1536,-5.1261,-5.126,-5.126,-5.1259,0,-5.1165,-5.1243,-5.117,-5.1219,-5.1304,-5.1238,-5.1324,-5.1306,-5.1299,-5.1344,-5.1265,-5.1309,-5.1239,-5.1277,-5.1238,-5.1317,-5.1322,-5.1308,-5.1297,-5.1316,-5.1319,-5.1328,-5.1315,-5.1267,-5.1265,-5.1264,-5.1263,0,-5.1399,-5.1353,-5.1434,-5.1405,-5.1399,-5.1464,-5.1439,-5.1484,-5.1453,-5.1511,-5.1521,-5.1474,-5.1514,-5.1466,-5.1501,-5.1475,-5.1583,-5.1553,-5.1585,-5.1577,-5.167,-5.1663,-5.1973,-5.2011,-5.171,-5.1713,-5.1715,0,-5.1539,-5.1597,-5.1575,-5.1599,-5.1596,-5.1635,-5.1653,-5.1591,-5.1613,-5.1614,-5.1659,-5.1692,-5.1715,-5.1784,-5.1754,-5.1781,-5.1752,-5.1859,-5.1755,-5.1774,-5.1756,-5.1754,-5.1761,-5.1881,-5.1884,-5.1887,-5.1889,0,-5.1793,-5.1768,-5.1796,-5.1818,-5.1842,-5.1856,-5.1864,-5.1888,-5.1823,-5.1852,-5.1892,-5.191,-5.1947,-5.1982,-5.2001,-5.1993,-5.1932,-5.1922,-5.1944,-5.1966,-5.1983,-5.1977,-5.1645,-5.1916,-5.1913,-5.1911,-5.191,-5.1909,-5.1986,-5.2034,-5.2026,-5.2061,-5.2061,-5.207,-5.2111,-5.2086,-5.2118,-5.2143,-5.2104,-5.2155,-5.215,-5.217,-5.2169,-5.2209,-5.2163,-5.2195,-5.2203,-5.2213,-5.2228,-5.1975,-5.2212,-5.2211,-5.221,-5.2209,-5.2209,0,-5.2238,-5.2228,-5.2261,-5.2275,-5.2303,-5.2242,-5.2248,-5.2276,-5.2321,-5.2322,-5.2347,-5.2394,-5.2427,-5.24,-5.2428,-5.2465,-5.2438,-5.2475,-5.2472,-5.2472,-5.2266,-5.2245,-5.2496,-5.2496,-5.2496,-5.2496,-5.2496,-5.2496,-5.2372,-5.2451,-5.2425,-5.2503,-5.2492,-5.2541,-5.255,-5.2559,-5.256,-5.2615,-5.2643,-5.2624,-5.2615,-5.2641,-5.267,-5.2661,-5.2676,-5.2724,-5.2706,-5.2514,-5.2486,-5.2459,-5.2439,-5.2727,-5.2727,-5.2908,-5.291,-5.2911]},{"header":{"parameterUnit":"m.s-1","parameterCategory":1,"la1":30.2991,"la2":30.254,"lo1":-89.0895,"lo2":-89.0444,"dy":0.0017,"dx":0.0017,"nx":28,"ny":28,"refTime":"2024-10-17T21:00:00:Z","depth":0,"parameterNumber":3,"parameterNumberName":"V-component_of_WINDS"},"data":[0,0,0,0,0,0,0,0,0,0,0,0,0,0,0,0,0,0,0,0,0,0,0,0,0,0,0,0,0,0,0,0,0,0,0,0,0,0,0,0,0,0,0,0,0,0,0,0,0,0,0,0,0,0,0,0,0,0,-0.9953,-0.9954,0,-0.9991,-0.9991,-0.9992,-0.9986,-0.9986,-0.9985,-0.9985,-1.0024,-1.0026,-1.0028,0,0,0,0,0,0,0,0,0,0,0,0,0,-0.9878,-0.9879,-0.9953,-0.9954,-0.9954,-0.9991,-0.9991,-0.9992,-0.9987,-0.9986,-0.9985,-0.9984,-1.0024,-1.0026,-1.0028,0,0,0,0,0,0,0,0,0,0,0,0,0,-0.9912,-0.988,-0.9953,-0.9956,-0.9957,-0.9991,-0.9992,-0.9992,-0.9987,-0.9986,-0.9985,-0.9984,-1.0023,-1.0026,-1.0028,-1.0062,0,0,-1.0036,-1.0037,0,0,0,0,0,0,0,0,-0.991,-0.9915,-0.9955,-0.9956,-0.9957,-0.9983,-0.9979,-1.0016,-0.9987,-0.9975,-0.9985,-0.9983,-1.0011,-1.0015,-1.0024,-1.0064,-1.0066,-1.0036,-1.0037,-1.0038,-1.0039,0,0,0,0,0,0,0,-0.9908,-0.9914,-0.9968,-0.9956,-0.9957,-0.9956,-0.9959,-0.9986,-0.9998,-0.9976,-0.9976,-0.998,-1.0012,-1.0022,-1.0025,-1.0066,-1.0036,-1.0038,-1.0039,-1.004,-1.0137,-1.0138,0,0,0,0,0,0,-0.9905,-0.9912,-0.9967,-0.9969,-0.9931,-0.9958,-0.9962,-0.9976,-0.9998,-1.0001,-0.9981,-0.998,-1.0018,-1.0022,-1.0026,-1.0069,-1.0038,-1.0041,-1.0042,-1.0136,-1.0138,-1.0139,0,0,0,0,0,0,-0.9903,-0.991,-0.9966,-0.994,-0.9947,-0.996,-0.9975,-0.9977,-0.9987,-1.0002,-1.0004,-0.9989,-1.0017,-1.0023,-1.0053,-1.007,-1.0042,-1.0044,-1.0135,-1.0137,-1.0138,-1.0154,0,0,0,0,0,0,-0.9901,-0.9909,-0.9922,-0.9941,-0.9949,-0.9992,-0.9976,-0.9978,-0.9991,-0.999,-1.001,-1.0012,-1.0017,-1.005,-1.0056,-1.0073,-1.0046,-1.0134,-1.0136,-1.0138,-1.0152,-1.0156,-1.0159,0,0,0,0,0,-0.9898,-0.9925,-0.9923,-0.993,-0.9965,-0.9993,-0.9998,-1.0002,-0.9992,-1.0006,-1.0015,-1.0012,-1.0067,-1.0053,-1.006,-1.0078,-1.0133,-1.0135,-1.0137,-1.015,-1.0155,-1.0159,0,0,0,0,0,0,-0.9909,-0.9928,-0.9926,-0.9959,-0.9975,-0.9992,-1.0009,-1.0007,-1.0026,-1.0024,-1.0029,-1.0034,-1.0065,-1.0074,-1.0058,-1.0113,-1.0098,-1.0102,-1.0106,-1.0111,-1.0114,-1.0112,-1.0048,0,0,0,0,0,-0.9915,-0.9936,-0.9951,-0.9979,-0.9987,-0.9997,-1.0009,-1.0011,-1.0027,-1.0034,-1.0046,-1.0062,-1.0083,-1.0097,-1.0117,-1.0152,-1.0157,-1.0168,-1.0172,-1.0175,-1.0179,-1.0199,-1.0205,-1.0147,-1.0147,-1.0147,0,0,-0.9929,-0.9941,-0.9954,-0.9982,-0.9994,-1.0016,-1.0002,-1.0026,-1.0042,-1.0038,-1.0068,-1.0077,-1.0095,-1.0128,-1.0144,-1.0137,-1.0195,-1.0178,-1.018,-1.0183,-1.0202,-1.0208,-1.0213,-1.0148,-1.0148,-1.0148,0,0,-0.9965,-0.9976,-1.0001,-1.0013,-1.0031,-1.0037,-1.0043,-1.0061,-1.0067,-1.0097,-1.0094,-1.0113,-1.0149,-1.0163,-1.0174,-1.0214,-1.0212,-1.022,-1.024,-1.026,-1.0264,-1.0269,-1.0284,-1.029,-1.0224,-1.0224,-1.0224,0,-0.9979,-1.0011,-1.0014,-1.0038,-1.0051,-1.0047,-1.0073,-1.0084,-1.0108,-1.0117,-1.0109,-1.0154,-1.0166,-1.0203,-1.0213,-1.0222,-1.023,-1.0219,-1.0263,-1.0268,-1.0271,-1.0286,-1.0292,-1.0225,-1.0225,-1.0225,-1.0225,0,-1.0029,-1.0051,-1.007,-1.0093,-1.0107,-1.0132,-1.0139,-1.0153,-1.0153,-1.016,-1.0191,-1.0205,-1.0228,-1.0237,-1.0237,-1.0274,-1.0269,-1.0262,-1.0248,-1.0278,-1.0292,-1.0298,-1.0226,-1.0226,-1.0226,-1.0225,0,0,-1.0075,-1.0098,-1.0105,-1.0116,-1.0135,-1.0153,-1.0177,-1.0199,-1.0212,-1.0228,-1.025,-1.0279,-1.0273,-1.0286,-1.0288,-1.0305,-1.0337,-1.0296,-1.0296,-1.0305,-1.038,-1.0387,-1.0393,-1.0335,-1.0336,-1.0337,-1.0379,0,-1.0114,-1.0157,-1.016,-1.0199,-1.0221,-1.0216,-1.0238,-1.0252,-1.0259,-1.0278,-1.0285,-1.0307,-1.0296,-1.0304,-1.032,-1.033,-1.0353,-1.0326,-1.0356,-1.0357,-1.0354,-1.04,-1.0408,-1.0447,-1.0384,-1.0385,-1.0386,0,-1.0166,-1.0183,-1.0225,-1.0241,-1.025,-1.0269,-1.029,-1.0308,-1.0324,-1.0328,-1.0342,-1.0342,-1.0367,-1.035,-1.0386,-1.0368,-1.038,-1.0387,-1.0388,-1.0393,-1.0375,-1.0408,-1.0459,-1.0466,-1.0394,-1.0394,-1.0393,0,-1.0197,-1.0231,-1.026,-1.0269,-1.0289,-1.0302,-1.0311,-1.0326,-1.0339,-1.0357,-1.0366,-1.0387,-1.0398,-1.0415,-1.042,-1.0407,-1.0456,-1.0439,-1.0461,-1.0461,-1.0473,-1.0473,-1.0529,-1.0477,-1.0477,-1.0477,-1.0477,0,-1.0241,-1.0267,-1.0275,-1.0293,-1.0322,-1.0324,-1.0353,-1.0361,-1.0374,-1.0395,-1.0391,-1.041,-1.0415,-1.0435,-1.0439,-1.0469,-1.0474,-1.0478,-1.0479,-1.048,-1.0479,-1.0489,-1.0487,-1.0479,-1.0478,-1.0478,-1.0478,0,-1.0282,-1.0288,-1.032,-1.0335,-1.034,-1.0361,-1.0374,-1.0392,-1.0398,-1.0423,-1.0429,-1.0439,-1.0462,-1.0468,-1.0496,-1.0498,-1.0534,-1.0532,-1.0529,-1.053,-1.0551,-1.055,-1.0617,-1.0627,-1.0567,-1.0568,-1.0568,0,-1.0312,-1.0331,-1.0349,-1.0362,-1.0371,-1.0392,-1.0406,-1.0408,-1.0423,-1.0442,-1.0458,-1.048,-1.0499,-1.0536,-1.0546,-1.0567,-1.0567,-1.0589,-1.057,-1.057,-1.0569,-1.0569,-1.0572,-1.0593,-1.0594,-1.0594,-1.0595,0,-1.0363,-1.0365,-1.0384,-1.0405,-1.042,-1.0437,-1.0452,-1.0463,-1.0468,-1.0484,-1.0507,-1.0522,-1.055,-1.0573,-1.0594,-1.0604,-1.0601,-1.06,-1.0607,-1.0608,-1.0607,-1.061,-1.0541,-1.0599,-1.0599,-1.0598,-1.0598,-1.0598,-1.0401,-1.0418,-1.0434,-1.0455,-1.0467,-1.0481,-1.0499,-1.0506,-1.0526,-1.0549,-1.0549,-1.0575,-1.0591,-1.0619,-1.0629,-1.065,-1.0644,-1.0652,-1.0655,-1.0658,-1.0661,-1.0601,-1.0654,-1.0654,-1.0653,-1.0653,-1.0653,0,-1.0454,-1.0463,-1.0483,-1.0504,-1.0521,-1.0515,-1.0532,-1.0547,-1.057,-1.0584,-1.0602,-1.063,-1.0652,-1.0662,-1.0684,-1.0699,-1.0698,-1.0705,-1.0705,-1.0707,-1.0664,-1.0657,-1.0705,-1.0705,-1.0705,-1.0705,-1.0705,-1.0705,-1.0484,-1.0514,-1.0517,-1.0553,-1.0562,-1.0587,-1.0598,-1.0611,-1.0622,-1.0653,-1.0671,-1.0678,-1.0691,-1.0714,-1.0734,-1.0736,-1.0745,-1.0753,-1.0755,-1.0715,-1.071,-1.0705,-1.0699,-1.0755,-1.0755,-1.0797,-1.0798,-1.0798]}]]